This is the latest recevied weather packets stored in our database for station/object OE3UKW. If no packets are shown the sender has not sent any weather packets the latest 10 day(s).
| Time | Temp. | Humidity | Pressure | Rain* | Wind** | Luminosity | Snow |
|---|---|---|---|---|---|---|---|
| 1777694471 | 6.11° C | 60% | 1025.8 hPa | 0 mm | - | 16 W/m² | - |
| 1777693871 | 6.67° C | 59% | 1025.8 hPa | 0 mm | - | 11 W/m² | - |
| 1777693271 | 6.67° C | 58% | 1025.8 hPa | 0 mm | - | 7 W/m² | - |
| 1777692670 | 7.22° C | 58% | 1025.9 hPa | 0 mm | - | 0 W/m² | - |
| 1777692071 | 7.78° C | 59% | 1025.9 hPa | 0 mm | - | 0 W/m² | - |
| 1777691470 | 7.78° C | 59% | 1025.9 hPa | 0 mm | - | 0 W/m² | - |
| 1777690871 | 8.33° C | 59% | 1025.7 hPa | 0 mm | - | 0 W/m² | - |
| 1777690270 | 7.78° C | 59% | 1025.8 hPa | 0 mm | - | 0 W/m² | - |
| 1777689671 | 7.78° C | 60% | 1025.9 hPa | 0 mm | - | 0 W/m² | - |
| 1777689070 | 7.78° C | 61% | 1025.8 hPa | 0 mm | - | 0 W/m² | - |
| 1777688470 | 7.22° C | 61% | 1025.9 hPa | 0 mm | - | 0 W/m² | - |
| 1777687870 | 7.22° C | 61% | 1025.8 hPa | 0 mm | - | 0 W/m² | - |
| 1777687270 | 7.78° C | 60% | 1025.7 hPa | 0 mm | - | 0 W/m² | - |
| 1777686670 | 7.78° C | 59% | 1026 hPa | 0 mm | - | 0 W/m² | - |
| 1777686070 | 7.78° C | 58% | 1026.1 hPa | 0 mm | - | 0 W/m² | - |
| 1777685470 | 8.33° C | 58% | 1026 hPa | 0 mm | - | 0 W/m² | - |
| 1777684870 | 8.33° C | 58% | 1026 hPa | 0 mm | - | 0 W/m² | - |
| 1777684270 | 8.33° C | 58% | 1026 hPa | 0 mm | - | 0 W/m² | - |
| 1777683670 | 8.33° C | 59% | 1026 hPa | 0 mm | - | 0 W/m² | - |
| 1777683073 | 8.33° C | 59% | 1026 hPa | 0 mm | - | 0 W/m² | - |
| 1777682473 | 8.33° C | 59% | 1025.8 hPa | 0 mm | - | 0 W/m² | - |
| 1777681873 | 8.33° C | 60% | 1026 hPa | 0 mm | - | 0 W/m² | - |
| 1777681273 | 7.78° C | 61% | 1026 hPa | 0 mm | - | 0 W/m² | - |
| 1777680673 | 7.78° C | 61% | 1026.1 hPa | 0 mm | - | 0 W/m² | - |
| 1777680073 | 7.78° C | 60% | 1026.2 hPa | 0 mm | - | 0 W/m² | - |
* Rain latest hour (hover to see other rain measurements)
** Current wind speed in m/s (hover to see current wind gust speed)